User: anonymous   Login
Location: Unspecified
(0.0000°N, 0.0000°E)
Time: 20:38:48
(UTC+00:00)
Language:

USA 186 - Orbit

View from above orbital plane
View from above orbital plane
View from above satellite
View from above satellite

Ground track
Ground track

The orbit data is extracted from the following two-line orbital elements,

1 28888U 05042A   21129.79095081 0.00020000  00000-0  94052-4 0    08
2 28888  96.8901 168.7787 0146059  98.8853 261.1145 15.68852340    01
Epoch (UTC): 09 May 2021 18:58:58
Eccentricity: 0.0146059
inclination: 96.8901°
perigee height: 264 km
apogee height: 460 km
right ascension of ascending node: 168.7787°
argument of perigee: 98.8853°
revolutions per day: 15.68852340
mean anomaly at epoch: 261.1145°
orbit number at epoch: 0

The dashed part of the orbit path shows where the satellite is in the earth's shadow,  

DLR